Deutsch Jahrndorf, Austria

8:00 PM CEST on May 28, 2017 (GMT +0200)
Deutsch Jahrndorf

Weather History for 11813 - December, 2013

Change the Weather History Date:

Saturday, December 14, 2013

  Actual Average Record
Temperature  
Mean Temperature 31 °F -  
Max Temperature 33 °F - - ()
Min Temperature 29 °F - - ()
Degree Days  
Heating Degree Days 34    
Moisture  
Dew Point 30 °F    
Average Humidity 94    
Maximum Humidity 97    
Minimum Humidity 91    
Precipitation  
Precipitation 0.00 in - - ()
Sea Level Pressure  
Sea Level Pressure 30.41 in    
Wind  
Wind Speed 1 mph ()    
Max Wind Speed 4 mph    
Max Gust Speed -    
T = Trace of Precipitation, MM = Missing Value Source: Averaged Metar Reports

Daily Weather History Graph

Daily Weather History Graph

Search for Another Location

Airport or City:

Trip Planner

Search our weather history database for the weather conditions in past years. The results will help you decide how hot, cold, wet, or windy it might be!

Date:

Astronomy

Dec. 14, 2013 Rise Set
Actual Time 7:34 AM CET 3:57 PM CET
Civil Twilight 6:58 AM CET 4:34 PM CET
Nautical Twilight 6:18 AM CET 5:14 PM CET
Astronomical Twilight 5:40 AM CET 5:51 PM CET
Moon 2:16 PM CET (12/14) 4:28 AM CET (12/14)
Length of Visible Light 9h 36m
Length of Day
8h 23m
Waxing Gibbous, 92% of the Moon is Illuminated
Dec 14
Waxing Gibbous
Dec 17
Full
Dec 25
Last Quarter
Jan 1
New
Jan 8
First Quarter

Hourly Weather History & Observations

Time (CET) Temp. Dew Point Humidity Pressure Visibility Wind Dir Wind Speed Gust Speed Precip Events Conditions
12:00 AM 31 °F 30 °F 93% 30.36 in - Calm Calm - -  
1:00 AM 31 °F 29 °F 91% 30.36 in - 2.2 mph - -  
2:00 AM 30 °F 29 °F 95% 30.36 in - 2.2 mph - -  
3:00 AM 30 °F 29 °F 93% 30.36 in - Calm Calm - -  
4:00 AM 30 °F 29 °F 95% 30.37 in - Calm Calm - -  
5:00 AM 30 °F 29 °F 95% 30.37 in - Calm Calm - -  
6:00 AM 30 °F 29 °F 93% 30.38 in - Calm Calm - -  
7:00 AM 30 °F 29 °F 95% 30.38 in - Calm Calm - -  
8:00 AM 30 °F 29 °F 95% 30.39 in - Calm Calm - -  
9:00 AM 30 °F 29 °F 97% 30.40 in - Calm Calm - -  
10:00 AM 31 °F 29 °F 91% 30.41 in - Calm Calm - -  
11:00 AM 31 °F 30 °F 93% 30.42 in - Calm Calm - -  
12:00 PM 32 °F 31 °F 94% 30.40 in - Calm Calm - -  
1:00 PM 32 °F 31 °F 95% 30.40 in - Calm Calm - -  
2:00 PM 33 °F 32 °F 94% 30.40 in - Calm Calm - -  
3:00 PM 32 °F 31 °F 96% 30.40 in - Calm Calm - -  
4:00 PM 32 °F 31 °F 92% 30.42 in - 2.2 mph - -  
5:00 PM 32 °F 31 °F 92% 30.43 in - 2.2 mph - -  
6:00 PM 32 °F 31 °F 95% 30.45 in - Calm Calm - -  
7:00 PM 32 °F 31 °F 93% 30.47 in - 2.2 mph - -  
8:00 PM 32 °F 31 °F 96% 30.47 in - 2.2 mph - -  
9:00 PM 32 °F 31 °F 95% 30.48 in - 2.2 mph - -  
10:00 PM 32 °F 31 °F 96% 30.48 in - SW 4.5 mph - -  
11:00 PM 33 °F 31 °F 92% 30.50 in - 4.5 mph - -